2CUTH EGNR-EGJJ

Flight info

Callsign 2CUTH
Flight time 1h 5m
Altitude 19000
Route REXAM DCT OGTAW N862 PACSE N92 WIGGU N864 ABBEW N90 ENHEL N862 SKERY
Aircraft TBM9/L-SDFGRWY/S

Departure

Time 2026-04-25 16:22
Airport Hawarden Airport (EGNR)

Arrival

Time 2026-04-25 17:27
Airport Jersey Airport (EGJJ)
Time Latitude Longitude Altitude Speed Heading
2026-04-25 16:12 53.18420 -2.97449 22 ft 0 kts 204°
2026-04-25 16:17 53.18426 -2.97433 25 ft 7 kts 359°
2026-04-25 16:17 53.18477 -2.97462 21 ft 10 kts 294°
2026-04-25 16:17 53.18478 -2.97533 24 ft 10 kts 210°
2026-04-25 16:17 53.18402 -2.97557 22 ft 13 kts 178°
2026-04-25 16:18 53.18305 -2.97551 23 ft 15 kts 178°
2026-04-25 16:18 53.18246 -2.97573 25 ft 14 kts 222°
2026-04-25 16:18 53.18138 -2.97730 25 ft 17 kts 220°
2026-04-25 16:18 53.18010 -2.97919 27 ft 20 kts 219°
2026-04-25 16:19 53.17966 -2.97978 28 ft 10 kts 218°
2026-04-25 16:19 53.17906 -2.98064 29 ft 13 kts 224°
2026-04-25 16:19 53.17882 -2.98169 29 ft 12 kts 297°
2026-04-25 16:20 53.17824 -2.98278 30 ft 14 kts 185°
2026-04-25 16:20 53.17730 -2.98281 31 ft 11 kts 180°
2026-04-25 16:20 53.17548 -2.98293 32 ft 9 kts 179°
2026-04-25 16:21 53.17473 -2.98297 31 ft 8 kts 182°
2026-04-25 16:21 53.17452 -2.98298 32 ft 0 kts 181°
2026-04-25 16:21 53.17448 -2.98287 32 ft 0 kts 36°
2026-04-25 16:22 53.17523 -2.98189 30 ft 45 kts 40°
2026-04-25 16:22 53.17935 -2.97602 65 ft 104 kts 34°
2026-04-25 16:22 53.18558 -2.96852 489 ft 117 kts 31°
2026-04-25 16:22 53.18942 -2.95615 937 ft 135 kts 92°
2026-04-25 16:23 53.18417 -2.94209 1244 ft 161 kts 147°
2026-04-25 16:23 53.17264 -2.93849 1580 ft 177 kts 188°
2026-04-25 16:23 53.16238 -2.94897 2157 ft 178 kts 232°
2026-04-25 16:23 53.15555 -2.96615 2671 ft 181 kts 236°
2026-04-25 16:24 53.14811 -2.98314 3224 ft 182 kts 232°
2026-04-25 16:24 53.14042 -2.99997 3808 ft 182 kts 232°
2026-04-25 16:24 53.13269 -3.01691 4396 ft 184 kts 232°
2026-04-25 16:24 53.12491 -3.03389 5002 ft 185 kts 232°
2026-04-25 16:25 53.11709 -3.05088 5606 ft 185 kts 232°
2026-04-25 16:25 53.11189 -3.06218 6014 ft 186 kts 233°
2026-04-25 16:25 53.10136 -3.08510 6829 ft 186 kts 233°
2026-04-25 16:25 53.09345 -3.10232 7358 ft 188 kts 233°
2026-04-25 16:26 53.08545 -3.11975 7879 ft 191 kts 232°
2026-04-25 16:26 53.07569 -3.13465 8407 ft 192 kts 211°
2026-04-25 16:26 53.06332 -3.14244 8950 ft 194 kts 191°
2026-04-25 16:26 53.04982 -3.14214 9490 ft 196 kts 169°
2026-04-25 16:27 53.03714 -3.13359 10026 ft 199 kts 152°
2026-04-25 16:27 53.02500 -3.12235 10532 ft 200 kts 153°
2026-04-25 16:27 53.01272 -3.11131 11045 ft 202 kts 152°
2026-04-25 16:27 53.00033 -3.10001 11557 ft 204 kts 153°
2026-04-25 16:28 52.98785 -3.08862 12084 ft 206 kts 153°
2026-04-25 16:28 52.97524 -3.07715 12616 ft 207 kts 153°
2026-04-25 16:28 52.96252 -3.06556 13158 ft 209 kts 153°
2026-04-25 16:28 52.94968 -3.05389 13691 ft 211 kts 153°
2026-04-25 16:29 52.93669 -3.04214 14198 ft 214 kts 153°
2026-04-25 16:29 52.92380 -3.03045 14675 ft 214 kts 153°
2026-04-25 16:29 52.91070 -3.01853 15165 ft 216 kts 153°
2026-04-25 16:29 52.89748 -3.00655 15647 ft 217 kts 153°
2026-04-25 16:30 52.88415 -2.99452 16127 ft 219 kts 153°
2026-04-25 16:30 52.87073 -2.98239 16594 ft 221 kts 153°
2026-04-25 16:30 52.85720 -2.97012 17072 ft 222 kts 152°
2026-04-25 16:30 52.84355 -2.95776 17557 ft 224 kts 152°
2026-04-25 16:31 52.82980 -2.94537 18043 ft 226 kts 152°
2026-04-25 16:31 52.81594 -2.93288 18512 ft 228 kts 153°
2026-04-25 16:31 52.80127 -2.92425 18919 ft 228 kts 172°
2026-04-25 16:31 52.78526 -2.92396 19188 ft 237 kts 189°
2026-04-25 16:32 52.76833 -2.92819 19201 ft 254 kts 190°
2026-04-25 16:32 52.75035 -2.93259 19205 ft 267 kts 189°
2026-04-25 16:32 52.73159 -2.93695 19197 ft 275 kts 189°
2026-04-25 16:32 52.71245 -2.94134 19195 ft 280 kts 187°
2026-04-25 16:33 52.69290 -2.94321 19199 ft 283 kts 184°
2026-04-25 16:33 52.67316 -2.94464 19193 ft 285 kts 184°
2026-04-25 16:33 52.65328 -2.94632 19202 ft 286 kts 184°
2026-04-25 16:33 52.63363 -2.94800 19201 ft 287 kts 184°
2026-04-25 16:34 52.61366 -2.94967 19201 ft 287 kts 184°
2026-04-25 16:34 52.59363 -2.95132 19202 ft 288 kts 184°
2026-04-25 16:34 52.57362 -2.95296 19204 ft 288 kts 184°
2026-04-25 16:34 52.55361 -2.95461 19201 ft 288 kts 184°
2026-04-25 16:35 52.53355 -2.95627 19192 ft 288 kts 185°
2026-04-25 16:35 52.51350 -2.95794 19199 ft 288 kts 184°
2026-04-25 16:35 52.49344 -2.95957 19197 ft 288 kts 185°
2026-04-25 16:35 52.47340 -2.96123 19196 ft 288 kts 185°
2026-04-25 16:36 52.45334 -2.96289 19197 ft 288 kts 185°
2026-04-25 16:36 52.44685 -2.96344 19191 ft 288 kts 185°
2026-04-25 16:36 52.41325 -2.96617 19194 ft 288 kts 185°
2026-04-25 16:36 52.39317 -2.96781 19187 ft 289 kts 185°
2026-04-25 16:37 52.37306 -2.96945 19191 ft 289 kts 185°
2026-04-25 16:37 52.35324 -2.97109 19186 ft 289 kts 185°
2026-04-25 16:37 52.33313 -2.97272 19184 ft 289 kts 185°
2026-04-25 16:37 52.31306 -2.97438 19191 ft 289 kts 185°
2026-04-25 16:38 52.29295 -2.97601 19189 ft 289 kts 185°
2026-04-25 16:38 52.27283 -2.97764 19188 ft 289 kts 185°
2026-04-25 16:38 52.25273 -2.97929 19190 ft 289 kts 185°
2026-04-25 16:38 52.23265 -2.98092 19190 ft 289 kts 185°
2026-04-25 16:39 52.21932 -2.98199 19185 ft 289 kts 185°
2026-04-25 16:39 52.19242 -2.98421 19184 ft 289 kts 185°
2026-04-25 16:39 52.17232 -2.98586 19191 ft 289 kts 185°
2026-04-25 16:39 52.15223 -2.98746 19187 ft 289 kts 185°
2026-04-25 16:40 52.13215 -2.98906 19180 ft 289 kts 185°
2026-04-25 16:40 52.11206 -2.99072 19187 ft 289 kts 185°
2026-04-25 16:40 52.09223 -2.99232 19189 ft 289 kts 185°
2026-04-25 16:40 52.07215 -2.99393 19195 ft 289 kts 185°
2026-04-25 16:41 52.05203 -2.99556 19195 ft 289 kts 185°
2026-04-25 16:41 52.03846 -2.99665 19197 ft 289 kts 185°
2026-04-25 16:41 51.99179 -3.00043 19197 ft 289 kts 185°
2026-04-25 16:42 51.97172 -3.00203 19207 ft 289 kts 185°
2026-04-25 16:42 51.95162 -3.00365 19211 ft 289 kts 186°
2026-04-25 16:42 51.93159 -3.00526 19210 ft 288 kts 186°
2026-04-25 16:42 51.91154 -3.00686 19218 ft 288 kts 186°
2026-04-25 16:43 51.89144 -3.00849 19221 ft 289 kts 186°
2026-04-25 16:43 51.87144 -3.01104 19219 ft 287 kts 190°
2026-04-25 16:43 51.85187 -3.01533 19222 ft 287 kts 191°
2026-04-25 16:43 51.83204 -3.01957 19227 ft 287 kts 190°
2026-04-25 16:44 51.81212 -3.02366 19232 ft 288 kts 190°
2026-04-25 16:44 51.79225 -3.02775 19233 ft 288 kts 190°
2026-04-25 16:44 51.77238 -3.03194 19231 ft 287 kts 191°
2026-04-25 16:44 51.75256 -3.03610 19234 ft 287 kts 191°
2026-04-25 16:45 51.73273 -3.04022 19236 ft 288 kts 191°
2026-04-25 16:45 51.71290 -3.04435 19235 ft 288 kts 191°
2026-04-25 16:45 51.69305 -3.04848 19233 ft 287 kts 191°
2026-04-25 16:45 51.67321 -3.05261 19232 ft 287 kts 191°
2026-04-25 16:46 51.65363 -3.05669 19229 ft 287 kts 191°
2026-04-25 16:46 51.63382 -3.06080 19222 ft 287 kts 191°
2026-04-25 16:46 51.61403 -3.06490 19224 ft 287 kts 191°
2026-04-25 16:46 51.60731 -3.06629 19221 ft 287 kts 191°
2026-04-25 16:47 51.57437 -3.07311 19218 ft 287 kts 191°
2026-04-25 16:47 51.55453 -3.07721 19214 ft 287 kts 191°
2026-04-25 16:47 51.53502 -3.08125 19183 ft 286 kts 191°
2026-04-25 16:47 51.51522 -3.08532 19179 ft 286 kts 191°
2026-04-25 16:48 51.49546 -3.08943 19180 ft 286 kts 191°
2026-04-25 16:48 51.47573 -3.09349 19181 ft 286 kts 191°
2026-04-25 16:48 51.45602 -3.09754 19177 ft 286 kts 191°
2026-04-25 16:48 51.43627 -3.10161 19177 ft 285 kts 191°
2026-04-25 16:49 51.41659 -3.10565 19178 ft 285 kts 191°
2026-04-25 16:49 51.39690 -3.10971 19179 ft 285 kts 192°
2026-04-25 16:49 51.37788 -3.11741 19194 ft 280 kts 205°
2026-04-25 16:49 51.36075 -3.13175 19198 ft 277 kts 217°
2026-04-25 16:50 51.34557 -3.15063 19194 ft 276 kts 221°
2026-04-25 16:50 51.33558 -3.16322 19193 ft 276 kts 221°
2026-04-25 16:50 51.31548 -3.18832 19192 ft 276 kts 221°
2026-04-25 16:50 51.30038 -3.20734 19189 ft 276 kts 221°
2026-04-25 16:51 51.28530 -3.22635 19187 ft 276 kts 221°
2026-04-25 16:51 51.27022 -3.24530 19185 ft 276 kts 221°
2026-04-25 16:51 51.25510 -3.26426 19184 ft 276 kts 221°
2026-04-25 16:51 51.25000 -3.27067 19183 ft 276 kts 221°
2026-04-25 16:52 51.22485 -3.30219 19181 ft 276 kts 221°
2026-04-25 16:52 51.20990 -3.32085 19180 ft 276 kts 219°
2026-04-25 16:52 51.19324 -3.33621 19176 ft 279 kts 206°
2026-04-25 16:52 51.17461 -3.34512 19173 ft 282 kts 193°
2026-04-25 16:53 51.13557 -3.35291 19181 ft 282 kts 191°
2026-04-25 16:53 51.11612 -3.35692 19181 ft 282 kts 191°
2026-04-25 16:53 51.09666 -3.36081 19181 ft 282 kts 191°
2026-04-25 16:54 51.07714 -3.36469 19184 ft 282 kts 191°
2026-04-25 16:54 51.05767 -3.36859 19182 ft 282 kts 191°
2026-04-25 16:54 51.03823 -3.37247 19180 ft 282 kts 191°
2026-04-25 16:54 51.01904 -3.37631 19181 ft 281 kts 191°
2026-04-25 16:55 50.99962 -3.38018 19178 ft 281 kts 190°
2026-04-25 16:55 50.98021 -3.38405 19180 ft 281 kts 190°
2026-04-25 16:55 50.96080 -3.38792 19182 ft 281 kts 190°
2026-04-25 16:55 50.94141 -3.39178 19180 ft 281 kts 190°
2026-04-25 16:56 50.92198 -3.39564 19182 ft 281 kts 190°
2026-04-25 16:56 50.90260 -3.39949 19183 ft 281 kts 190°
2026-04-25 16:56 50.88323 -3.40334 19177 ft 280 kts 190°
2026-04-25 16:56 50.86380 -3.40719 19177 ft 280 kts 190°
2026-04-25 16:57 50.84448 -3.41102 19179 ft 280 kts 190°
2026-04-25 16:57 50.83821 -3.41226 19178 ft 280 kts 190°
2026-04-25 16:57 50.80604 -3.41862 19176 ft 280 kts 190°
2026-04-25 16:57 50.78669 -3.42246 19178 ft 280 kts 190°
2026-04-25 16:58 50.76732 -3.42629 19174 ft 280 kts 190°
2026-04-25 16:58 50.74795 -3.43010 19202 ft 279 kts 190°
2026-04-25 16:58 50.72865 -3.43392 19202 ft 280 kts 190°
2026-04-25 16:58 50.70933 -3.43772 19205 ft 280 kts 190°
2026-04-25 16:59 50.69027 -3.44144 19203 ft 280 kts 190°
2026-04-25 16:59 50.67096 -3.44526 19202 ft 279 kts 190°
2026-04-25 16:59 50.65170 -3.44908 19205 ft 279 kts 190°
2026-04-25 16:59 50.63241 -3.45286 19199 ft 278 kts 190°
2026-04-25 17:00 50.61314 -3.45662 19202 ft 278 kts 190°
2026-04-25 17:00 50.59392 -3.46039 19201 ft 278 kts 190°
2026-04-25 17:00 50.57469 -3.46418 19199 ft 278 kts 190°
2026-04-25 17:00 50.55546 -3.46769 19199 ft 278 kts 189°
2026-04-25 17:01 50.53647 -3.47072 19200 ft 277 kts 188°
2026-04-25 17:01 50.51722 -3.47287 19195 ft 279 kts 181°
2026-04-25 17:01 50.49794 -3.46844 19191 ft 282 kts 169°
2026-04-25 17:01 50.47960 -3.45725 19196 ft 285 kts 156°
2026-04-25 17:02 50.46206 -3.44273 19199 ft 285 kts 156°
2026-04-25 17:02 50.44442 -3.42850 19202 ft 284 kts 157°
2026-04-25 17:02 50.42697 -3.41446 19196 ft 284 kts 156°
2026-04-25 17:02 50.42104 -3.40964 19192 ft 284 kts 156°
2026-04-25 17:03 50.39183 -3.38591 19195 ft 284 kts 156°
2026-04-25 17:03 50.37425 -3.37170 19195 ft 284 kts 156°
2026-04-25 17:03 50.35662 -3.35746 19191 ft 284 kts 156°
2026-04-25 17:03 50.33901 -3.34324 19192 ft 284 kts 157°
2026-04-25 17:04 50.32168 -3.32926 19191 ft 284 kts 156°
2026-04-25 17:04 50.30412 -3.31510 19192 ft 284 kts 156°
2026-04-25 17:04 50.28656 -3.30095 19190 ft 284 kts 157°
2026-04-25 17:04 50.26898 -3.28680 19192 ft 284 kts 157°
2026-04-25 17:05 50.25144 -3.27271 19191 ft 284 kts 157°
2026-04-25 17:05 50.21507 -3.25081 19205 ft 279 kts 172°
2026-04-25 17:05 50.19611 -3.24418 19203 ft 279 kts 170°
2026-04-25 17:06 50.17722 -3.23714 19203 ft 279 kts 170°
2026-04-25 17:06 50.16467 -3.23252 19203 ft 279 kts 171°
2026-04-25 17:06 50.14572 -3.22572 19203 ft 279 kts 171°
2026-04-25 17:06 50.12678 -3.21894 19199 ft 279 kts 171°
2026-04-25 17:07 50.10786 -3.21213 19196 ft 279 kts 171°
2026-04-25 17:07 50.08887 -3.20528 19195 ft 279 kts 170°
2026-04-25 17:07 50.06990 -3.19847 19193 ft 279 kts 171°
2026-04-25 17:07 50.05095 -3.19169 19193 ft 279 kts 171°
2026-04-25 17:08 50.03226 -3.18495 19192 ft 279 kts 171°
2026-04-25 17:08 50.01334 -3.17813 19187 ft 279 kts 170°
2026-04-25 17:08 49.99503 -3.16758 19184 ft 283 kts 156°
2026-04-25 17:08 49.97829 -3.15122 19187 ft 285 kts 150°
2026-04-25 17:09 49.96175 -3.13410 19130 ft 287 kts 150°
2026-04-25 17:09 49.94470 -3.11690 18817 ft 296 kts 150°
2026-04-25 17:09 49.92722 -3.09922 18415 ft 303 kts 150°
2026-04-25 17:09 49.90951 -3.08109 17977 ft 302 kts 150°
2026-04-25 17:10 49.89246 -3.06354 17590 ft 293 kts 150°
2026-04-25 17:10 49.87560 -3.04623 17214 ft 288 kts 150°
2026-04-25 17:10 49.85894 -3.02927 16847 ft 283 kts 151°
2026-04-25 17:10 49.84255 -3.01265 16467 ft 280 kts 150°
2026-04-25 17:11 49.82628 -2.99610 16110 ft 278 kts 150°
2026-04-25 17:11 49.81012 -2.97970 15743 ft 277 kts 150°
2026-04-25 17:11 49.79430 -2.96360 15387 ft 276 kts 149°
2026-04-25 17:11 49.77831 -2.94737 15033 ft 274 kts 149°
2026-04-25 17:12 49.76233 -2.93122 14665 ft 273 kts 149°
2026-04-25 17:12 49.74645 -2.91513 14310 ft 272 kts 148°
2026-04-25 17:12 49.73062 -2.89908 13948 ft 271 kts 148°
2026-04-25 17:12 49.71489 -2.88318 13563 ft 269 kts 148°
2026-04-25 17:13 49.69932 -2.86744 13208 ft 266 kts 149°
2026-04-25 17:13 49.68908 -2.85710 12976 ft 265 kts 148°
2026-04-25 17:13 49.66872 -2.83654 12514 ft 263 kts 148°
2026-04-25 17:13 49.65347 -2.82115 12171 ft 261 kts 149°
2026-04-25 17:14 49.63828 -2.80588 11825 ft 260 kts 149°
2026-04-25 17:14 49.62315 -2.79064 11484 ft 259 kts 148°
2026-04-25 17:14 49.60798 -2.77540 11024 ft 261 kts 149°
2026-04-25 17:14 49.59280 -2.76017 10650 ft 259 kts 148°
2026-04-25 17:15 49.57782 -2.74506 10305 ft 257 kts 148°
2026-04-25 17:15 49.56291 -2.73009 9953 ft 255 kts 148°
2026-04-25 17:15 49.54812 -2.71528 9610 ft 253 kts 148°
2026-04-25 17:15 49.53344 -2.70055 9276 ft 251 kts 148°
2026-04-25 17:16 49.51886 -2.68593 8949 ft 249 kts 148°
2026-04-25 17:16 49.50435 -2.67139 8626 ft 249 kts 148°
2026-04-25 17:16 49.48983 -2.65687 8299 ft 249 kts 148°
2026-04-25 17:16 49.47531 -2.64241 7972 ft 248 kts 148°
2026-04-25 17:17 49.46085 -2.62796 7651 ft 248 kts 148°
2026-04-25 17:17 49.44625 -2.61376 7326 ft 248 kts 153°
2026-04-25 17:17 49.42962 -2.60758 7010 ft 248 kts 176°
2026-04-25 17:17 49.41237 -2.60742 6690 ft 248 kts 181°
2026-04-25 17:18 49.39559 -2.60787 6379 ft 233 kts 181°
2026-04-25 17:18 49.37997 -2.60826 6048 ft 217 kts 181°
2026-04-25 17:18 49.36511 -2.60852 5722 ft 210 kts 181°
2026-04-25 17:18 49.35064 -2.60877 5409 ft 206 kts 181°
2026-04-25 17:19 49.33641 -2.60900 5106 ft 203 kts 181°
2026-04-25 17:19 49.32238 -2.60917 4869 ft 199 kts 181°
2026-04-25 17:19 49.30867 -2.60929 4663 ft 195 kts 180°
2026-04-25 17:19 49.29550 -2.60533 4469 ft 193 kts 161°
2026-04-25 17:20 49.28308 -2.59809 4340 ft 189 kts 160°
2026-04-25 17:20 49.27191 -2.58849 4195 ft 188 kts 137°
2026-04-25 17:20 49.26342 -2.57343 4109 ft 186 kts 131°
2026-04-25 17:20 49.25535 -2.55820 4032 ft 183 kts 131°
2026-04-25 17:21 49.24760 -2.54357 3945 ft 170 kts 131°
2026-04-25 17:21 49.24031 -2.52972 3863 ft 167 kts 130°
2026-04-25 17:21 49.23300 -2.51585 3781 ft 168 kts 131°
2026-04-25 17:21 49.22565 -2.50199 3691 ft 168 kts 130°
2026-04-25 17:22 49.21831 -2.48811 3612 ft 167 kts 130°
2026-04-25 17:22 49.21348 -2.47899 3561 ft 167 kts 131°
2026-04-25 17:22 49.20372 -2.46066 3452 ft 166 kts 131°
2026-04-25 17:22 49.19633 -2.44689 3326 ft 168 kts 131°
2026-04-25 17:23 49.19075 -2.43129 3169 ft 171 kts 104°
2026-04-25 17:23 49.19030 -2.41303 2956 ft 169 kts 89°
2026-04-25 17:23 49.19133 -2.39564 2736 ft 160 kts 87°
2026-04-25 17:23 49.19253 -2.37896 2525 ft 156 kts 86°
2026-04-25 17:24 49.19395 -2.36288 2322 ft 153 kts 85°
2026-04-25 17:24 49.19526 -2.34693 2119 ft 150 kts 85°
2026-04-25 17:24 49.19662 -2.33112 1922 ft 150 kts 84°
2026-04-25 17:24 49.19789 -2.31533 1718 ft 150 kts 84°
2026-04-25 17:25 49.19917 -2.30061 1524 ft 129 kts 84°
2026-04-25 17:25 49.20024 -2.28753 1357 ft 121 kts 82°
2026-04-25 17:25 49.20129 -2.27511 1200 ft 115 kts 84°
2026-04-25 17:25 49.20223 -2.26347 1059 ft 106 kts 83°
2026-04-25 17:26 49.20317 -2.25253 929 ft 98 kts 82°
2026-04-25 17:26 49.20403 -2.24215 787 ft 100 kts 82°
2026-04-25 17:26 49.20488 -2.23192 657 ft 95 kts 82°
2026-04-25 17:26 49.20584 -2.22175 543 ft 98 kts 82°
2026-04-25 17:27 49.20664 -2.21175 389 ft 88 kts 82°
2026-04-25 17:27 49.20739 -2.20264 287 ft 80 kts 84°
2026-04-25 17:27 49.20796 -2.19568 279 ft 54 kts 81°
2026-04-25 17:27 49.20809 -2.19413 280 ft 37 kts 83°
2026-04-25 17:28 49.20761 -2.18907 276 ft 14 kts 114°
2026-04-25 17:28 49.20716 -2.18857 266 ft 8 kts 219°
2026-04-25 17:28 49.20692 -2.18997 278 ft 21 kts 259°
2026-04-25 17:28 49.20686 -2.19248 275 ft 25 kts 279°
2026-04-25 17:29 49.20705 -2.19482 275 ft 19 kts 258°
2026-04-25 17:29 49.20661 -2.19649 275 ft 16 kts 220°
2026-04-25 17:29 49.20612 -2.19768 275 ft 15 kts 264°
2026-04-25 17:29 49.20594 -2.19920 275 ft 13 kts 224°
2026-04-25 17:30 49.20504 -2.19924 275 ft 13 kts 173°
2026-04-25 17:30 49.20433 -2.19880 275 ft 12 kts 102°
2026-04-25 17:30 49.20440 -2.19756 275 ft 12 kts 83°
2026-04-25 17:30 49.20436 -2.19622 275 ft 13 kts 107°
2026-04-25 17:31 49.20413 -2.19492 275 ft 12 kts 106°
2026-04-25 17:31 49.20401 -2.19357 274 ft 14 kts 80°
2026-04-25 17:31 49.20370 -2.19299 274 ft 7 kts 169°
2026-04-25 17:31 49.20352 -2.19284 274 ft 0 kts 87°